Other Surface Observations
Issued by NWS Upton, NY

Home | Current Version | Previous Version | Text Only | Print | Product List | Glossary On
Versions: 1 2 3 4 5 6 7 8 9 10 11 12 13 14 15 16 17 18 19 20 21 22 23 24 25 26 27 28 29 30 31 32 33 34 35 36 37 38 39 40 41 42 43 44 45 46 47 48 49 50
441
SXUS51 KOKX 300857
OSOOKX
NEW YORK CITY METROPOLITAN AREA WEATHER ROUNDUP
National Weather Service New York NY
500 AM EDT MON MAY 30 2016


CITY           SKY/WX    TMP DP  RH WIND       PRES   REMARKS
Central Park   HVY RAIN  70  68  93 CALM      30.02S FOG
LaGuardia APRT HVY RAIN  70  70 100 S7        29.98S FOG
Kennedy INTL   RAIN      67  66  97 S8        29.99F
Newark Liberty LGT RAIN  69  68  96 CALM      29.99S
Teteboro APRT  RAIN      70  65  84 CALM      29.98R FOG
BNX BOT. GARD.   N/A     68  66  94 S2        30.02R
Wall St Helipt CLOUDY    70  68  94 CALM      30.00S

>>>>>>>>>>>>>>>>>>>>>>>>>>>>>>>>> KEY <<<<<<<<<<<<<<<<<<<<<<<<<<<<<<<
> SKY/WX - SKY CONDITION/           : R : WCI - WIND CHILL INDEX    <
>          PRESENT WEATHER          : E : VSB - VISIBILITY IN MILES <
> TMP    - TEMPERATURE IN DEG F     : M : HX  - HEAT INDEX          <
> DP     - DEW POINT TEMPERATURE    : A : TC  - TEMPERATURE IN      <
> RH     - RELATIVE HUMIDITY        : R :       CELSIUS             <
> WIND   - DIRECTION/SPEED (MPH)    : K : VRB - VARIABLE WIND  DIR  <
> PRES   - PRESSURE (IN HG)         : S :                           <
>>>>>>>>>>>>>>>>>>>>>>>>>>>>>>>>> KEY <<<<<<<<<<<<<<<<<<<<<<<<<<<<<<<




USA.gov is the U.S. government's official web portal to all federal, state and local government web resources and services.